| time (UTC) | temp F | wind direction | speed knots | gust knots | rain 1hr in | rain 24hr in | rain mn in | humidity % | barometer mb |
| 20260505171703 | 64 | 357 | 2.6 | 5.2 | 0.00 | 0.00 | 0.00 | 71 | 1005.8 |
| 20260505171212 | 46 | 255 | 0.0 | 0.0 | 0.00 | 0.00 | 0.00 | 84 | 1024.7 |
| 20260505171204 | 64 | 358 | 3.5 | 7.0 | 0.00 | 0.00 | 0.00 | 71 | 1005.7 |
| 20260505170704 | 65 | 12 | 4.3 | 7.0 | 0.00 | 0.00 | 0.00 | 71 | 1005.7 |
| 20260505170212 | 46 | 255 | 0.0 | 0.0 | 0.00 | 0.00 | 0.00 | 84 | 1024.7 |
| 20260505170204 | 65 | 330 | 2.6 | 6.1 | 0.00 | 0.00 | 0.00 | 71 | 1005.7 |
| 20260505165703 | 65 | 354 | 2.6 | 7.0 | 0.00 | 0.00 | 0.00 | 71 | 1005.6 |
| 20260505165212 | 46 | 255 | 0.0 | 0.0 | 0.00 | 0.00 | 0.00 | 84 | 1024.7 |
| 20260505165206 | 65 | 337 | 2.6 | 7.0 | 0.00 | 0.00 | 0.00 | 71 | 1005.7 |
| 20260505164705 | 65 | 21 | 4.3 | 7.8 | 0.00 | 0.00 | 0.00 | 70 | 1005.6 |
| 20260505163706 | 66 | 359 | 3.5 | 8.7 | 0.00 | 0.00 | 0.00 | 70 | 1005.8 |
| 20260505163212 | 46 | 255 | 0.0 | 0.0 | 0.00 | 0.00 | 0.00 | 84 | 1024.7 |
| 20260505163205 | 66 | 339 | 1.7 | 5.2 | 0.00 | 0.00 | 0.00 | 70 | 1005.9 |
| 20260505162705 | 66 | 346 | 1.7 | 7.0 | 0.00 | 0.00 | 0.00 | 69 | 1005.9 |
| 20260505162212 | 46 | 255 | 0.0 | 0.0 | 0.00 | 0.00 | 0.00 | 84 | 1024.7 |
| 20260505162206 | 67 | 9 | 4.3 | 7.0 | 0.00 | 0.00 | 0.00 | 68 | 1005.9 |
| 20260505161212 | 46 | 255 | 0.0 | 0.0 | 0.00 | 0.00 | 0.00 | 84 | 1024.7 |
| 20260505161205 | 67 | 1 | 1.7 | 6.1 | 0.00 | 0.00 | 0.00 | 68 | 1005.9 |
| 20260505160706 | 67 | 355 | 2.6 | 5.2 | 0.00 | 0.00 | 0.00 | 67 | 1005.9 |
| 20260505160212 | 46 | 255 | 0.0 | 0.0 | 0.00 | 0.00 | 0.00 | 84 | 1024.7 |
| 20260505160206 | 67 | 2 | 4.3 | 6.1 | 0.00 | 0.00 | 0.00 | 65 | 1005.9 |
| 20260505153212 | 46 | 255 | 0.0 | 0.0 | 0.00 | 0.00 | 0.00 | 84 | 1024.7 |
| 20260505153206 | 68 | 347 | 2.6 | 7.0 | 0.00 | 0.00 | 0.00 | 63 | 1005.9 |
| 20260505152705 | 68 | 17 | 2.6 | 6.1 | 0.00 | 0.00 | 0.00 | 64 | 1006.0 |
| 20260505152212 | 46 | 255 | 0.0 | 0.0 | 0.00 | 0.00 | 0.00 | 84 | 1024.7 |
| 20260505152206 | 68 | 350 | 1.7 | 6.1 | 0.00 | 0.00 | 0.00 | 65 | 1006.2 |
| 20260505151705 | 67 | 331 | 0.9 | 5.2 | 0.00 | 0.00 | 0.00 | 66 | 1006.3 |
| 20260505151212 | 46 | 255 | 0.0 | 0.0 | 0.00 | 0.00 | 0.00 | 84 | 1024.7 |
| 20260505151205 | 67 | 355 | 4.3 | 6.1 | 0.00 | 0.00 | 0.00 | 66 | 1006.3 |
| 20260505150706 | 67 | 6 | 3.5 | 5.2 | 0.00 | 0.00 | 0.00 | 66 | 1006.3 |
| 20260505130212 | 46 | 255 | 0.0 | 0.0 | 0.00 | 0.00 | 0.00 | 84 | 1024.7 |
| 20260505130205 | 69 | 352 | 4.3 | 8.7 | 0.00 | 0.00 | 0.00 | 64 | 1006.8 |
| 20260505124705 | 69 | 342 | 3.5 | 8.7 | 0.00 | 0.00 | 0.00 | 64 | 1007.0 |
| 20260505124212 | 46 | 255 | 0.0 | 0.0 | 0.00 | 0.00 | 0.00 | 84 | 1024.7 |
| 20260505124205 | 70 | 328 | 5.2 | 8.7 | 0.00 | 0.00 | 0.00 | 64 | 1007.0 |
| 20260505123706 | 70 | 17 | 4.3 | 10.4 | 0.00 | 0.00 | 0.00 | 63 | 1006.9 |
| 20260505123212 | 46 | 255 | 0.0 | 0.0 | 0.00 | 0.00 | 0.00 | 84 | 1024.7 |
| 20260505123205 | 70 | 310 | 4.3 | 10.4 | 0.00 | 0.00 | 0.00 | 63 | 1006.8 |
| 20260505122705 | 70 | 347 | 5.2 | 8.7 | 0.00 | 0.00 | 0.00 | 63 | 1006.8 |
| 20260505122212 | 46 | 255 | 0.0 | 0.0 | 0.00 | 0.00 | 0.00 | 84 | 1024.7 |
| 20260505122205 | 70 | 298 | 4.3 | 10.4 | 0.00 | 0.00 | 0.00 | 61 | 1006.8 |
| 20260505121706 | 70 | 357 | 4.3 | 6.1 | 0.00 | 0.00 | 0.00 | 62 | 1006.8 |
| 20260505121212 | 46 | 255 | 0.0 | 0.0 | 0.00 | 0.00 | 0.00 | 84 | 1024.7 |
| 20260505121205 | 69 | 352 | 4.3 | 7.0 | 0.00 | 0.00 | 0.00 | 62 | 1006.9 |
| 20260505120705 | 69 | 290 | 3.5 | 7.0 | 0.00 | 0.00 | 0.00 | 63 | 1006.9 |
| 20260505120212 | 46 | 255 | 0.0 | 0.0 | 0.00 | 0.00 | 0.00 | 84 | 1024.7 |
| 20260505120205 | 69 | 293 | 4.3 | 7.8 | 0.00 | 0.00 | 0.00 | 63 | 1007.0 |
| 20260505115705 | 69 | 339 | 1.7 | 7.0 | 0.00 | 0.00 | 0.00 | 64 | 1006.9 |
| 20260505114706 | 69 | 305 | 5.2 | 10.4 | 0.00 | 0.00 | 0.00 | 65 | 1007.0 |
| 20260505114212 | 46 | 255 | 0.0 | 0.0 | 0.00 | 0.00 | 0.00 | 84 | 1024.7 |
| 20260505114205 | 69 | 307 | 5.2 | 7.8 | 0.00 | 0.00 | 0.00 | 66 | 1007.0 |
| 20260505113212 | 46 | 255 | 0.0 | 0.0 | 0.00 | 0.00 | 0.00 | 84 | 1024.7 |
| 20260505113206 | 69 | 316 | 5.2 | 10.4 | 0.00 | 0.00 | 0.00 | 67 | 1007.1 |
| 20260505110706 | 69 | 313 | 3.5 | 5.2 | 0.00 | 0.00 | 0.00 | 62 | 1007.3 |
| 20260505110211 | 46 | 255 | 0.0 | 0.0 | 0.00 | 0.00 | 0.00 | 84 | 1024.7 |
| 20260505110205 | 69 | 2 | 4.3 | 8.7 | 0.00 | 0.00 | 0.00 | 62 | 1007.3 |
| 20260505101705 | 66 | 341 | 4.3 | 7.0 | 0.00 | 0.00 | 0.00 | 70 | 1007.7 |
| 20260505101212 | 46 | 255 | 0.0 | 0.0 | 0.00 | 0.00 | 0.00 | 84 | 1024.7 |
| 20260505101205 | 66 | 350 | 3.5 | 6.1 | 0.00 | 0.00 | 0.00 | 70 | 1007.7 |
| 20260505100212 | 46 | 255 | 0.0 | 0.0 | 0.00 | 0.00 | 0.00 | 84 | 1024.7 |
| 20260505100206 | 66 | 333 | 5.2 | 7.8 | 0.00 | 0.00 | 0.00 | 70 | 1007.7 |
| 20260505095705 | 66 | 330 | 2.6 | 6.1 | 0.00 | 0.00 | 0.00 | 70 | 1007.8 |
| 20260505095211 | 46 | 255 | 0.0 | 0.0 | 0.00 | 0.00 | 0.00 | 84 | 1024.7 |
| 20260505095205 | 65 | 344 | 3.5 | 6.1 | 0.00 | 0.00 | 0.00 | 71 | 1007.9 |
| 20260505094705 | 66 | 289 | 5.2 | 10.4 | 0.00 | 0.00 | 0.00 | 70 | 1007.9 |
| 20260505094211 | 46 | 255 | 0.0 | 0.0 | 0.00 | 0.00 | 0.00 | 84 | 1024.7 |
| 20260505094205 | 66 | 266 | 3.5 | 10.4 | 0.00 | 0.00 | 0.00 | 71 | 1007.9 |
| 20260505093705 | 66 | 311 | 4.3 | 6.1 | 0.00 | 0.00 | 0.00 | 71 | 1007.9 |
| 20260505093211 | 46 | 255 | 0.0 | 0.0 | 0.00 | 0.00 | 0.00 | 84 | 1024.7 |
| 20260505093205 | 66 | 262 | 2.6 | 7.0 | 0.00 | 0.00 | 0.00 | 70 | 1008.0 |
| 20260505092705 | 66 | 262 | 3.5 | 7.8 | 0.00 | 0.00 | 0.00 | 70 | 1008.0 |
| 20260505092211 | 46 | 255 | 0.0 | 0.0 | 0.00 | 0.00 | 0.00 | 84 | 1024.7 |
| 20260505092205 | 66 | 281 | 4.3 | 7.0 | 0.00 | 0.00 | 0.00 | 69 | 1008.0 |
| 20260505091705 | 66 | 318 | 2.6 | 5.2 | 0.00 | 0.00 | 0.00 | 69 | 1007.9 |
| 20260505091212 | 46 | 255 | 0.0 | 0.0 | 0.00 | 0.00 | 0.00 | 84 | 1024.7 |
| 20260505091205 | 66 | 242 | 2.6 | 6.1 | 0.00 | 0.00 | 0.00 | 68 | 1007.9 |
| 20260505090706 | 65 | 337 | 2.6 | 5.2 | 0.00 | 0.00 | 0.00 | 68 | 1008.0 |
| 20260505090211 | 46 | 255 | 0.0 | 0.0 | 0.00 | 0.00 | 0.00 | 84 | 1024.7 |
| 20260505090205 | 65 | 270 | 3.5 | 6.1 | 0.00 | 0.00 | 0.00 | 68 | 1008.0 |
| 20260505085211 | 46 | 255 | 0.0 | 0.0 | 0.00 | 0.00 | 0.00 | 84 | 1024.7 |
| 20260505085205 | 64 | 7 | 0.9 | 2.6 | 0.00 | 0.00 | 0.00 | 70 | 1008.0 |
| 20260505084705 | 64 | 294 | 1.7 | 4.3 | 0.00 | 0.00 | 0.00 | 70 | 1008.1 |
| 20260505083705 | 63 | 257 | 2.6 | 5.2 | 0.00 | 0.00 | 0.00 | 73 | 1008.1 |
| 20260505083211 | 46 | 255 | 0.0 | 0.0 | 0.00 | 0.00 | 0.00 | 84 | 1024.7 |
| 20260505083206 | 62 | 253 | 2.6 | 4.3 | 0.00 | 0.00 | 0.00 | 74 | 1008.1 |
| 20260505082705 | 62 | 332 | 2.6 | 5.2 | 0.00 | 0.00 | 0.00 | 74 | 1008.1 |
| 20260505082211 | 46 | 255 | 0.0 | 0.0 | 0.00 | 0.00 | 0.00 | 84 | 1024.7 |
| 20260505082205 | 62 | 296 | 2.6 | 5.2 | 0.00 | 0.00 | 0.00 | 75 | 1008.1 |
| 20260505081705 | 62 | 337 | 3.5 | 4.3 | 0.00 | 0.00 | 0.00 | 75 | 1008.2 |
| 20260505081211 | 46 | 255 | 0.0 | 0.0 | 0.00 | 0.00 | 0.00 | 84 | 1024.7 |
| 20260505081205 | 61 | 341 | 0.9 | 2.6 | 0.00 | 0.00 | 0.00 | 76 | 1008.1 |
| 20260505080704 | 61 | 315 | 1.7 | 4.3 | 0.00 | 0.00 | 0.00 | 75 | 1008.1 |
| 20260505080211 | 46 | 255 | 0.0 | 0.0 | 0.00 | 0.00 | 0.00 | 84 | 1024.7 |
| 20260505080206 | 61 | 335 | 2.6 | 5.2 | 0.00 | 0.00 | 0.00 | 75 | 1008.1 |
| 20260505075705 | 61 | 333 | 2.6 | 5.2 | 0.00 | 0.00 | 0.00 | 75 | 1008.2 |
| 20260505075211 | 46 | 255 | 0.0 | 0.0 | 0.00 | 0.00 | 0.00 | 84 | 1024.7 |
| 20260505075205 | 61 | 310 | 3.5 | 6.1 | 0.00 | 0.00 | 0.00 | 75 | 1008.2 |
| 20260505074211 | 46 | 255 | 0.0 | 0.0 | 0.00 | 0.00 | 0.00 | 84 | 1024.7 |
| 20260505074205 | 61 | 267 | 2.6 | 5.2 | 0.00 | 0.00 | 0.00 | 76 | 1008.1 |
| 20260505073705 | 61 | 287 | 3.5 | 5.2 | 0.00 | 0.00 | 0.00 | 76 | 1008.2 |
| 20260505073211 | 46 | 255 | 0.0 | 0.0 | 0.00 | 0.00 | 0.00 | 84 | 1024.7 |
| 20260505073205 | 60 | 282 | 2.6 | 5.2 | 0.00 | 0.00 | 0.00 | 77 | 1008.2 |
| 20260505072705 | 60 | 269 | 2.6 | 5.2 | 0.00 | 0.00 | 0.00 | 77 | 1008.2 |
| 20260505072211 | 46 | 255 | 0.0 | 0.0 | 0.00 | 0.00 | 0.00 | 84 | 1024.7 |
| 20260505072205 | 60 | 320 | 3.5 | 6.1 | 0.00 | 0.00 | 0.00 | 77 | 1008.2 |
| 20260505071704 | 60 | 334 | 2.6 | 6.1 | 0.00 | 0.00 | 0.00 | 77 | 1008.2 |
| 20260505071211 | 46 | 255 | 0.0 | 0.0 | 0.00 | 0.00 | 0.00 | 84 | 1024.7 |
| 20260505071205 | 60 | 269 | 2.6 | 5.2 | 0.00 | 0.00 | 0.00 | 78 | 1008.3 |
| 20260505070704 | 60 | 293 | 2.6 | 6.1 | 0.00 | 0.00 | 0.00 | 79 | 1008.3 |
| 20260505070211 | 46 | 255 | 0.0 | 0.0 | 0.00 | 0.00 | 0.00 | 84 | 1024.7 |
| 20260505070205 | 60 | 341 | 4.3 | 5.2 | 0.00 | 0.00 | 0.00 | 78 | 1008.4 |
| 20260505065705 | 60 | 330 | 1.7 | 4.3 | 0.00 | 0.00 | 0.00 | 79 | 1008.5 |
| 20260505065211 | 46 | 255 | 0.0 | 0.0 | 0.00 | 0.00 | 0.00 | 84 | 1024.7 |
| 20260505065205 | 60 | 319 | 2.6 | 4.3 | 0.00 | 0.00 | 0.00 | 77 | 1008.4 |
| 20260505064705 | 60 | 236 | 1.7 | 4.3 | 0.00 | 0.00 | 0.00 | 77 | 1008.4 |
| 20260505063211 | 46 | 255 | 0.0 | 0.0 | 0.00 | 0.00 | 0.00 | 84 | 1024.7 |
| 20260505063206 | 60 | 212 | 0.9 | 2.6 | 0.00 | 0.00 | 0.00 | 78 | 1008.6 |
| 20260505062705 | 60 | 230 | 1.7 | 5.2 | 0.00 | 0.00 | 0.00 | 78 | 1008.6 |
| 20260505062211 | 46 | 255 | 0.0 | 0.0 | 0.00 | 0.00 | 0.00 | 84 | 1024.7 |
| 20260505062205 | 60 | 247 | 2.6 | 5.2 | 0.00 | 0.00 | 0.00 | 78 | 1008.6 |
| 20260505061705 | 60 | 246 | 2.6 | 6.1 | 0.00 | 0.00 | 0.00 | 77 | 1008.6 |
| 20260505061211 | 46 | 255 | 0.0 | 0.0 | 0.00 | 0.00 | 0.00 | 84 | 1024.7 |
| 20260505061205 | 60 | 271 | 3.5 | 5.2 | 0.00 | 0.00 | 0.00 | 78 | 1008.6 |
| 20260505060704 | 59 | 235 | 0.9 | 1.7 | 0.00 | 0.00 | 0.00 | 79 | 1008.6 |
| 20260505060211 | 46 | 255 | 0.0 | 0.0 | 0.00 | 0.00 | 0.00 | 84 | 1024.7 |
| 20260505060204 | 59 | 239 | 1.7 | 5.2 | 0.00 | 0.00 | 0.00 | 79 | 1008.6 |
| 20260505055704 | 59 | 255 | 2.6 | 5.2 | 0.00 | 0.00 | 0.00 | 80 | 1008.6 |
| 20260505055211 | 46 | 255 | 0.0 | 0.0 | 0.00 | 0.00 | 0.00 | 84 | 1024.7 |
| 20260505055204 | 59 | 288 | 2.6 | 5.2 | 0.00 | 0.00 | 0.00 | 80 | 1008.5 |
| 20260505054705 | 58 | 263 | 2.6 | 5.2 | 0.00 | 0.00 | 0.00 | 80 | 1008.5 |
| 20260505054211 | 46 | 255 | 0.0 | 0.0 | 0.00 | 0.00 | 0.00 | 84 | 1024.7 |
| 20260505054204 | 58 | 275 | 2.6 | 5.2 | 0.00 | 0.00 | 0.00 | 80 | 1008.5 |
| 20260505053704 | 58 | 225 | 0.9 | 2.6 | 0.00 | 0.00 | 0.00 | 81 | 1008.4 |
| 20260505053211 | 46 | 255 | 0.0 | 0.0 | 0.00 | 0.00 | 0.00 | 84 | 1024.7 |
| 20260505053205 | 58 | 242 | 0.9 | 1.7 | 0.00 | 0.00 | 0.00 | 82 | 1008.3 |
| 20260505052705 | 57 | 242 | 0.0 | 1.7 | 0.00 | 0.00 | 0.00 | 82 | 1008.2 |
| 20260505052211 | 46 | 255 | 0.0 | 0.0 | 0.00 | 0.00 | 0.00 | 84 | 1024.7 |
| 20260505052205 | 57 | 242 | 0.9 | 1.7 | 0.00 | 0.00 | 0.00 | 82 | 1008.2 |
| 20260505051211 | 46 | 255 | 0.0 | 0.0 | 0.00 | 0.00 | 0.00 | 84 | 1024.7 |
| 20260505051205 | 57 | 242 | 0.9 | 1.7 | 0.00 | 0.00 | 0.00 | 83 | 1008.2 |
| 20260505050704 | 57 | 242 | 0.0 | 0.9 | 0.00 | 0.00 | 0.00 | 84 | 1008.2 |
| 20260505041705 | 55 | 242 | 0.0 | 0.0 | 0.00 | 0.00 | 0.00 | 84 | 1008.4 |
| 20260505040211 | 46 | 255 | 0.0 | 0.0 | 0.00 | 0.00 | 0.00 | 84 | 1024.7 |
| 20260505040205 | 55 | 242 | 0.0 | 0.9 | 0.00 | 0.00 | 0.00 | 84 | 1008.3 |
| 20260505035705 | 55 | 242 | 0.9 | 1.7 | 0.00 | 0.00 | 0.00 | 84 | 1008.3 |
| 20260505034211 | 46 | 255 | 0.0 | 0.0 | 0.00 | 0.00 | 0.00 | 84 | 1024.7 |
| 20260505034205 | 55 | 242 | 0.0 | 1.7 | 0.00 | 0.00 | 0.00 | 84 | 1008.4 |
| 20260505033704 | 56 | 242 | 0.9 | 1.7 | 0.00 | 0.00 | 0.00 | 84 | 1008.4 |
| 20260505032211 | 46 | 255 | 0.0 | 0.0 | 0.00 | 0.00 | 0.00 | 84 | 1024.7 |
| 20260505032204 | 56 | 242 | 0.0 | 0.0 | 0.00 | 0.00 | 0.00 | 84 | 1008.5 |
| 20260505031705 | 56 | 242 | 0.0 | 0.9 | 0.00 | 0.00 | 0.00 | 84 | 1008.5 |
| 20260505031211 | 46 | 255 | 0.0 | 0.0 | 0.00 | 0.00 | 0.00 | 84 | 1024.7 |
| 20260505031205 | 56 | 242 | 0.9 | 1.7 | 0.00 | 0.00 | 0.00 | 84 | 1008.5 |
| 20260505030705 | 56 | 242 | 0.9 | 1.7 | 0.00 | 0.00 | 0.00 | 84 | 1008.6 |
| 20260505030211 | 46 | 255 | 0.0 | 0.0 | 0.00 | 0.00 | 0.00 | 84 | 1024.7 |
| 20260505030205 | 56 | 242 | 0.9 | 1.7 | 0.00 | 0.00 | 0.00 | 83 | 1008.6 |
| 20260505025704 | 56 | 242 | 0.9 | 1.7 | 0.00 | 0.00 | 0.00 | 83 | 1008.7 |
| 20260505025211 | 46 | 255 | 0.0 | 0.0 | 0.00 | 0.00 | 0.00 | 84 | 1024.7 |
| 20260505025204 | 56 | 242 | 0.9 | 1.7 | 0.00 | 0.00 | 0.00 | 83 | 1008.8 |
| 20260505024704 | 57 | 242 | 0.0 | 0.0 | 0.00 | 0.00 | 0.00 | 83 | 1009.0 |
| 20260505024211 | 46 | 255 | 0.0 | 0.0 | 0.00 | 0.00 | 0.00 | 84 | 1024.7 |
| 20260505024205 | 57 | 242 | 0.0 | 0.0 | 0.00 | 0.00 | 0.00 | 83 | 1009.1 |
| 20260505023705 | 57 | 242 | 0.0 | 0.0 | 0.00 | 0.00 | 0.00 | 82 | 1009.1 |
| 20260505023211 | 46 | 255 | 0.0 | 0.0 | 0.00 | 0.00 | 0.00 | 84 | 1024.7 |
| 20260505023205 | 57 | 242 | 0.0 | 0.0 | 0.00 | 0.00 | 0.00 | 82 | 1009.1 |
| 20260505022705 | 57 | 242 | 0.0 | 0.0 | 0.00 | 0.00 | 0.00 | 82 | 1009.2 |
| 20260505022211 | 46 | 255 | 0.0 | 0.0 | 0.00 | 0.00 | 0.00 | 84 | 1024.7 |
| 20260505022205 | 57 | 242 | 0.0 | 0.0 | 0.00 | 0.00 | 0.00 | 82 | 1009.3 |
| 20260505021704 | 57 | 242 | 0.0 | 0.9 | 0.00 | 0.00 | 0.00 | 82 | 1009.3 |
| 20260505021211 | 46 | 255 | 0.0 | 0.0 | 0.00 | 0.00 | 0.00 | 84 | 1024.7 |
| 20260505021204 | 57 | 242 | 0.0 | 0.0 | 0.00 | 0.00 | 0.00 | 81 | 1009.3 |
| 20260505020705 | 57 | 242 | 0.0 | 0.9 | 0.00 | 0.00 | 0.00 | 81 | 1009.4 |
| 20260505020211 | 46 | 255 | 0.0 | 0.0 | 0.00 | 0.00 | 0.00 | 84 | 1024.7 |
| 20260505020205 | 57 | 242 | 0.0 | 0.0 | 0.00 | 0.00 | 0.00 | 81 | 1009.4 |
| 20260505015704 | 57 | 242 | 0.0 | 0.0 | 0.00 | 0.00 | 0.00 | 81 | 1009.4 |
| 20260505015211 | 46 | 255 | 0.0 | 0.0 | 0.00 | 0.00 | 0.00 | 84 | 1024.7 |
| 20260505015205 | 57 | 242 | 0.0 | 0.9 | 0.00 | 0.00 | 0.00 | 81 | 1009.5 |
| 20260505014704 | 57 | 242 | 0.9 | 1.7 | 0.00 | 0.00 | 0.00 | 80 | 1009.5 |
| 20260505014211 | 46 | 255 | 0.0 | 0.0 | 0.00 | 0.00 | 0.00 | 84 | 1024.7 |
| 20260505014204 | 57 | 242 | 0.0 | 0.9 | 0.00 | 0.00 | 0.00 | 81 | 1009.6 |
| 20260505013705 | 57 | 242 | 0.0 | 0.0 | 0.00 | 0.00 | 0.00 | 80 | 1009.7 |
| 20260505013211 | 46 | 255 | 0.0 | 0.0 | 0.00 | 0.00 | 0.00 | 84 | 1024.7 |
| 20260505013205 | 57 | 242 | 0.0 | 0.0 | 0.00 | 0.00 | 0.00 | 80 | 1009.6 |
| 20260505012704 | 57 | 242 | 0.0 | 0.0 | 0.00 | 0.00 | 0.00 | 80 | 1009.7 |
| 20260505012211 | 46 | 255 | 0.0 | 0.0 | 0.00 | 0.00 | 0.00 | 84 | 1024.7 |
| 20260505012204 | 57 | 242 | 0.0 | 0.9 | 0.00 | 0.00 | 0.00 | 81 | 1009.7 |
| 20260505011211 | 46 | 255 | 0.0 | 0.0 | 0.00 | 0.00 | 0.00 | 84 | 1024.7 |
| 20260505011204 | 57 | 240 | 0.9 | 2.6 | 0.00 | 0.00 | 0.00 | 81 | 1009.8 |
| 20260505010705 | 57 | 302 | 0.9 | 2.6 | 0.00 | 0.00 | 0.00 | 81 | 1009.8 |
| 20260505010210 | 46 | 255 | 0.0 | 0.0 | 0.00 | 0.00 | 0.00 | 84 | 1024.7 |
| 20260505010204 | 57 | 272 | 0.0 | 0.0 | 0.00 | 0.00 | 0.00 | 82 | 1010.0 |
| 20260505005705 | 57 | 248 | 0.9 | 1.7 | 0.00 | 0.00 | 0.00 | 82 | 1010.1 |
| 20260505005211 | 46 | 255 | 0.0 | 0.0 | 0.00 | 0.00 | 0.00 | 84 | 1024.7 |
| 20260505005204 | 57 | 243 | 1.7 | 11.3 | 0.00 | 0.00 | 0.00 | 82 | 1010.1 |
| 20260505004704 | 56 | 264 | 0.0 | 0.0 | 0.00 | 0.00 | 0.00 | 82 | 1010.0 |
| 20260505004210 | 46 | 255 | 0.0 | 0.0 | 0.00 | 0.00 | 0.00 | 84 | 1024.7 |
| 20260505004204 | 56 | 264 | 0.0 | 0.0 | 0.00 | 0.00 | 0.00 | 82 | 1009.8 |
| 20260505003704 | 56 | 264 | 0.0 | 0.0 | 0.00 | 0.00 | 0.00 | 82 | 1009.8 |
| 20260505003210 | 46 | 255 | 0.0 | 0.0 | 0.00 | 0.00 | 0.00 | 84 | 1024.7 |
| 20260505003204 | 56 | 264 | 0.0 | 0.0 | 0.00 | 0.00 | 0.00 | 82 | 1009.8 |
| 20260505002705 | 56 | 264 | 0.0 | 0.0 | 0.00 | 0.00 | 0.00 | 82 | 1009.8 |
| 20260505002210 | 46 | 255 | 0.0 | 0.0 | 0.00 | 0.00 | 0.00 | 84 | 1024.7 |
| 20260505002205 | 56 | 264 | 0.0 | 0.0 | 0.00 | 0.00 | 0.00 | 82 | 1009.9 |
| 20260505001704 | 56 | 264 | 0.0 | 0.0 | 0.00 | 0.00 | 0.00 | 82 | 1010.0 |
| 20260505000705 | 56 | 264 | 0.0 | 0.0 | 0.00 | 0.00 | 0.00 | 82 | 1010.1 |
| 20260505000211 | 46 | 255 | 0.0 | 0.0 | 0.00 | 0.00 | 0.00 | 84 | 1024.7 |
| 20260505000204 | 56 | 264 | 0.0 | 0.0 | 0.00 | 0.00 | 0.00 | 82 | 1010.2 |
| 20260504235704 | 56 | 264 | 0.0 | 0.0 | 0.00 | 0.00 | 0.00 | 82 | 1010.3 |
| 20260504235210 | 46 | 255 | 0.0 | 0.0 | 0.00 | 0.00 | 0.00 | 84 | 1024.7 |
| 20260504235204 | 56 | 264 | 0.0 | 0.0 | 0.00 | 0.00 | 0.00 | 82 | 1010.3 |
| 20260504234704 | 56 | 264 | 0.0 | 0.0 | 0.00 | 0.00 | 0.00 | 82 | 1010.2 |
| 20260504234210 | 46 | 255 | 0.0 | 0.0 | 0.00 | 0.00 | 0.00 | 84 | 1024.7 |
| 20260504234205 | 56 | 264 | 0.0 | 0.0 | 0.00 | 0.00 | 0.00 | 82 | 1010.2 |
| 20260504233704 | 56 | 264 | 0.0 | 0.0 | 0.00 | 0.00 | 0.00 | 82 | 1010.2 |
| 20260504232704 | 56 | 264 | 0.0 | 0.0 | 0.00 | 0.00 | 0.00 | 82 | 1010.3 |
| 20260504232210 | 46 | 255 | 0.0 | 0.0 | 0.00 | 0.00 | 0.00 | 84 | 1024.7 |
| 20260504232204 | 56 | 264 | 0.0 | 0.0 | 0.00 | 0.00 | 0.00 | 82 | 1010.4 |
| 20260504231704 | 56 | 264 | 0.0 | 0.0 | 0.00 | 0.00 | 0.00 | 82 | 1010.5 |
| 20260504231210 | 46 | 255 | 0.0 | 0.0 | 0.00 | 0.00 | 0.00 | 84 | 1024.7 |
| 20260504231204 | 56 | 264 | 0.0 | 0.0 | 0.00 | 0.00 | 0.00 | 82 | 1010.5 |
| 20260504230704 | 56 | 264 | 0.0 | 0.0 | 0.00 | 0.00 | 0.00 | 81 | 1010.5 |
| 20260504230210 | 46 | 255 | 0.0 | 0.0 | 0.00 | 0.00 | 0.00 | 84 | 1024.7 |
| 20260504230204 | 56 | 264 | 0.0 | 0.0 | 0.00 | 0.00 | 0.00 | 81 | 1010.6 |
| 20260504225705 | 56 | 264 | 0.0 | 0.0 | 0.00 | 0.00 | 0.00 | 81 | 1010.7 |
| 20260504224704 | 57 | 264 | 0.0 | 0.0 | 0.00 | 0.00 | 0.00 | 80 | 1010.7 |
| 20260504224210 | 46 | 255 | 0.0 | 0.0 | 0.00 | 0.00 | 0.00 | 84 | 1024.7 |
| 20260504224204 | 57 | 264 | 0.0 | 0.0 | 0.00 | 0.00 | 0.00 | 80 | 1010.7 |
| 20260504223704 | 57 | 264 | 0.0 | 0.0 | 0.00 | 0.00 | 0.00 | 79 | 1010.7 |
| 20260504223210 | 46 | 255 | 0.0 | 0.0 | 0.00 | 0.00 | 0.00 | 84 | 1024.7 |
| 20260504223204 | 57 | 264 | 0.0 | 0.0 | 0.00 | 0.00 | 0.00 | 79 | 1010.8 |
| 20260504222705 | 58 | 264 | 0.0 | 0.0 | 0.00 | 0.00 | 0.00 | 78 | 1010.9 |
| 20260504221704 | 58 | 264 | 0.0 | 0.0 | 0.00 | 0.00 | 0.00 | 78 | 1010.8 |
| 20260504221210 | 46 | 255 | 0.0 | 0.0 | 0.00 | 0.00 | 0.00 | 84 | 1024.7 |
| 20260504221204 | 58 | 264 | 0.0 | 0.0 | 0.00 | 0.00 | 0.00 | 78 | 1010.8 |
| 20260504220704 | 58 | 264 | 0.0 | 0.0 | 0.00 | 0.00 | 0.00 | 77 | 1010.8 |
| 20260504220210 | 46 | 255 | 0.0 | 0.0 | 0.00 | 0.00 | 0.00 | 84 | 1024.7 |
| 20260504220205 | 59 | 264 | 0.0 | 0.0 | 0.00 | 0.00 | 0.00 | 77 | 1011.0 |
| 20260504215705 | 59 | 264 | 0.0 | 0.0 | 0.00 | 0.00 | 0.00 | 77 | 1010.9 |
| 20260504215210 | 46 | 255 | 0.0 | 0.0 | 0.00 | 0.00 | 0.00 | 84 | 1024.7 |
| 20260504215205 | 59 | 264 | 0.0 | 0.0 | 0.00 | 0.00 | 0.00 | 77 | 1011.0 |
| 20260504214704 | 59 | 264 | 0.0 | 0.0 | 0.00 | 0.00 | 0.00 | 76 | 1011.1 |
| 20260504214210 | 46 | 255 | 0.0 | 0.0 | 0.00 | 0.00 | 0.00 | 84 | 1024.7 |
| 20260504214204 | 59 | 264 | 0.0 | 0.0 | 0.00 | 0.00 | 0.00 | 76 | 1011.3 |
| 20260504213705 | 59 | 264 | 0.0 | 0.0 | 0.00 | 0.00 | 0.00 | 76 | 1011.3 |
| 20260504213210 | 46 | 255 | 0.0 | 0.0 | 0.00 | 0.00 | 0.00 | 84 | 1024.7 |
| 20260504213204 | 60 | 264 | 0.0 | 0.0 | 0.00 | 0.00 | 0.00 | 75 | 1011.3 |
| 20260504212704 | 60 | 264 | 0.0 | 0.9 | 0.00 | 0.00 | 0.00 | 75 | 1011.3 |
| 20260504212210 | 46 | 255 | 0.0 | 0.0 | 0.00 | 0.00 | 0.00 | 84 | 1024.7 |
| 20260504212205 | 60 | 264 | 0.0 | 0.0 | 0.00 | 0.00 | 0.00 | 75 | 1011.3 |
| 20260504211704 | 60 | 264 | 0.0 | 0.9 | 0.00 | 0.00 | 0.00 | 75 | 1011.3 |
| 20260504211210 | 46 | 255 | 0.0 | 0.0 | 0.00 | 0.00 | 0.00 | 84 | 1024.7 |
| 20260504211204 | 60 | 259 | 1.7 | 2.6 | 0.00 | 0.00 | 0.00 | 74 | 1011.2 |
| 20260504210705 | 60 | 257 | 0.9 | 1.7 | 0.00 | 0.00 | 0.00 | 74 | 1011.2 |
| 20260504210210 | 46 | 255 | 0.0 | 0.0 | 0.00 | 0.00 | 0.00 | 84 | 1024.7 |
| 20260504210204 | 60 | 257 | 0.9 | 1.7 | 0.00 | 0.00 | 0.00 | 74 | 1011.2 |
| 20260504205704 | 60 | 257 | 0.9 | 1.7 | 0.00 | 0.00 | 0.00 | 74 | 1011.2 |
| 20260504205210 | 46 | 255 | 0.0 | 0.0 | 0.00 | 0.00 | 0.00 | 84 | 1024.7 |
| 20260504205204 | 60 | 257 | 0.9 | 2.6 | 0.00 | 0.00 | 0.00 | 74 | 1011.2 |
| 20260504204704 | 60 | 257 | 0.9 | 1.7 | 0.00 | 0.00 | 0.00 | 74 | 1011.3 |
| 20260504204210 | 46 | 255 | 0.0 | 0.0 | 0.00 | 0.00 | 0.00 | 84 | 1024.7 |
| 20260504204205 | 61 | 257 | 0.9 | 1.7 | 0.00 | 0.00 | 0.00 | 74 | 1011.2 |
| 20260504203704 | 61 | 257 | 0.9 | 1.7 | 0.00 | 0.00 | 0.00 | 73 | 1011.3 |
| 20260504203210 | 46 | 255 | 0.0 | 0.0 | 0.00 | 0.00 | 0.00 | 84 | 1024.7 |
| 20260504203204 | 61 | 257 | 0.0 | 1.7 | 0.00 | 0.00 | 0.00 | 73 | 1011.2 |
| 20260504202704 | 61 | 241 | 0.0 | 0.0 | 0.00 | 0.00 | 0.00 | 72 | 1011.2 |
| 20260504202210 | 46 | 255 | 0.0 | 0.0 | 0.00 | 0.00 | 0.00 | 84 | 1024.7 |
| 20260504202204 | 61 | 241 | 0.0 | 0.0 | 0.00 | 0.00 | 0.00 | 72 | 1011.1 |
| 20260504201704 | 61 | 241 | 0.0 | 1.7 | 0.00 | 0.00 | 0.00 | 72 | 1011.1 |
| 20260504201210 | 46 | 255 | 0.0 | 0.0 | 0.00 | 0.00 | 0.00 | 84 | 1024.7 |
| 20260504201204 | 61 | 241 | 0.9 | 2.6 | 0.00 | 0.00 | 0.00 | 71 | 1011.0 |
| 20260504200704 | 61 | 241 | 0.0 | 0.0 | 0.00 | 0.00 | 0.00 | 71 | 1011.0 |
| 20260504200210 | 46 | 255 | 0.0 | 0.0 | 0.00 | 0.00 | 0.00 | 84 | 1024.7 |
| 20260504200204 | 61 | 241 | 0.0 | 0.0 | 0.00 | 0.00 | 0.00 | 70 | 1011.0 |
| 20260504195210 | 46 | 255 | 0.0 | 0.0 | 0.00 | 0.00 | 0.00 | 84 | 1024.7 |
| 20260504195204 | 62 | 241 | 0.0 | 0.0 | 0.00 | 0.00 | 0.00 | 70 | 1011.1 |
| 20260504194704 | 62 | 241 | 0.0 | 1.7 | 0.00 | 0.00 | 0.00 | 70 | 1011.2 |
| 20260504194210 | 46 | 255 | 0.0 | 0.0 | 0.00 | 0.00 | 0.00 | 84 | 1024.7 |
| 20260504194204 | 62 | 241 | 0.9 | 1.7 | 0.00 | 0.00 | 0.00 | 69 | 1011.2 |
| 20260504193704 | 62 | 241 | 0.9 | 1.7 | 0.00 | 0.00 | 0.00 | 69 | 1011.2 |
| 20260504193210 | 46 | 255 | 0.0 | 0.0 | 0.00 | 0.00 | 0.00 | 84 | 1024.7 |
| 20260504193204 | 63 | 241 | 0.0 | 1.7 | 0.00 | 0.00 | 0.00 | 68 | 1011.1 |
| 20260504192704 | 63 | 241 | 0.0 | 0.9 | 0.00 | 0.00 | 0.00 | 67 | 1011.2 |
| 20260504192210 | 46 | 255 | 0.0 | 0.0 | 0.00 | 0.00 | 0.00 | 84 | 1024.7 |
| 20260504192204 | 63 | 241 | 0.0 | 0.0 | 0.00 | 0.00 | 0.00 | 67 | 1011.2 |
| 20260504191704 | 63 | 241 | 0.0 | 0.0 | 0.00 | 0.00 | 0.00 | 66 | 1011.1 |
| 20260504190210 | 46 | 255 | 0.0 | 0.0 | 0.00 | 0.00 | 0.00 | 84 | 1024.7 |
| 20260504190204 | 65 | 241 | 0.0 | 0.0 | 0.00 | 0.00 | 0.00 | 64 | 1011.1 |
| 20260504184704 | 66 | 241 | 0.0 | 0.0 | 0.00 | 0.00 | 0.00 | 61 | 1011.1 |
| 20260504183704 | 66 | 241 | 0.0 | 0.0 | 0.00 | 0.00 | 0.00 | 59 | 1011.0 |
| 20260504183210 | 46 | 255 | 0.0 | 0.0 | 0.00 | 0.00 | 0.00 | 84 | 1024.7 |
| 20260504183205 | 67 | 241 | 0.0 | 0.0 | 0.00 | 0.00 | 0.00 | 58 | 1010.9 |
| 20260504182704 | 67 | 241 | 0.0 | 0.0 | 0.00 | 0.00 | 0.00 | 57 | 1010.9 |
| 20260504182210 | 46 | 255 | 0.0 | 0.0 | 0.00 | 0.00 | 0.00 | 84 | 1024.7 |
| 20260504182204 | 67 | 270 | 0.0 | 0.0 | 0.00 | 0.00 | 0.00 | 56 | 1010.9 |
| 20260504181704 | 68 | 270 | 0.0 | 0.9 | 0.00 | 0.00 | 0.00 | 56 | 1010.9 |
| 20260504181210 | 46 | 255 | 0.0 | 0.0 | 0.00 | 0.00 | 0.00 | 84 | 1024.7 |
| 20260504181204 | 68 | 270 | 0.0 | 1.7 | 0.00 | 0.00 | 0.00 | 56 | 1011.0 |
| 20260504180704 | 68 | 296 | 0.0 | 1.7 | 0.00 | 0.00 | 0.00 | 54 | 1011.0 |
| 20260504180210 | 46 | 255 | 0.0 | 0.0 | 0.00 | 0.00 | 0.00 | 84 | 1024.7 |
| 20260504180204 | 69 | 309 | 0.9 | 1.7 | 0.00 | 0.00 | 0.00 | 54 | 1010.9 |
| 20260504175704 | 69 | 309 | 1.7 | 2.6 | 0.00 | 0.00 | 0.00 | 53 | 1010.9 |
| 20260504175210 | 46 | 255 | 0.0 | 0.0 | 0.00 | 0.00 | 0.00 | 84 | 1024.7 |
| 20260504175204 | 69 | 303 | 1.7 | 2.6 | 0.00 | 0.00 | 0.00 | 53 | 1010.8 |
| 20260504174704 | 69 | 280 | 1.7 | 4.3 | 0.00 | 0.00 | 0.00 | 52 | 1010.8 |
| 20260504174210 | 46 | 255 | 0.0 | 0.0 | 0.00 | 0.00 | 0.00 | 84 | 1024.7 |
| 20260504174204 | 70 | 321 | 2.6 | 5.2 | 0.00 | 0.00 | 0.00 | 51 | 1010.7 |
| 20260504173704 | 70 | 323 | 1.7 | 5.2 | 0.00 | 0.00 | 0.00 | 51 | 1010.7 |
| 20260504172704 | 71 | 309 | 1.7 | 6.1 | 0.00 | 0.00 | 0.00 | 51 | 1010.7 |
| 20260504172210 | 46 | 255 | 0.0 | 0.0 | 0.00 | 0.00 | 0.00 | 84 | 1024.7 |
| 20260504172203 | 71 | 277 | 2.6 | 5.2 | 0.00 | 0.00 | 0.00 | 51 | 1010.7 |